Regional Weather Roundup
Issued by NWS

Home | Current Version | Previous Version | Graphics & Text | Print | Product List | Glossary On
Versions: 1 2 3 4 5 6 7 8 9 10 11 12 13 14 15 16 17 18 19 20 21 22 23 24 25 26 27 28 29 30 31 32 33 34 35 36 37 38 39 40 41 42 43 44 45 46 47 48 49 50
000
ASUS43 KFSD 230310
RWRSD

WEATHER ROUNDUP FOR SOUTH DAKOTA
NATIONAL WEATHER SERVICE SIOUX FALLS SD
1000 PM CDT FRI SEP 22 2017

NOTE: "FAIR" INDICATES FEW OR NO CLOUDS BELOW 12,000 FEET WITH NO
SIGNIFICANT WEATHER AND/OR OBSTRUCTIONS TO VISIBILITY.


SDZ001>005-009-010-012>017-230400-
NORTHWEST AND NORTH CENTRAL SOUTH DAKOTA

CITY           SKY/WX    TMP DP  RH WIND       PRES   REMARKS
BUFFALO          N/A     46  38  73 N10       29.97R
FAITH            N/A     48  41  76 N21       29.96R
MOBRIDGE       CLOUDY    52  47  83 N17G28    29.86S
$$

SDZ012>016-024>037-041>051-057-063-072>074-230400-
SOUTHWEST AND SOUTH CENTRAL SOUTH DAKOTA

CITY           SKY/WX    TMP DP  RH WIND       PRES   REMARKS
RAPID CTY ARPT MOCLDY    50  36  57 N23G30    29.96R
PIERRE         CLOUDY    52  44  74 N6        29.95R
CUSTER         CLOUDY    46  43  89 S8        29.97R
ELLSWORTH AFB  MOCLDY    50  35  55 N17G26    29.96R
PHILIP         CLOUDY    52  42  69 N15       29.96R
PINE RIDGE     PTCLDY    54  40  59 N13       29.95R
SPEARFISH      LGT RAIN  45  39  81 NW7       30.01F
WINNER         CLOUDY    58  51  78 N7        29.89R
$$

SDZ004>011-016>023-039-040-230400-
NORTHEAST SOUTH DAKOTA

CITY           SKY/WX    TMP DP  RH WIND       PRES   REMARKS
ABERDEEN       CLOUDY    60  56  86 N16       29.82R
WATERTOWN      CLOUDY    66  63  90 NW10      29.80R
BROOKINGS      MOCLDY    68  65  90 N6        29.81R
SISSETON         N/A     71  62  73 W16G23    29.73R
$$

SDZ017-020-022-023-036>040-048>070-230400-
SOUTHEAST SOUTH DAKOTA

CITY           SKY/WX    TMP DP  RH WIND       PRES   REMARKS
SIOUX FALLS    CLOUDY    74  67  78 CALM      29.79R
HURON          MOCLDY    60  54  80 NW14      29.81R
CHAMBERLAIN    CLOUDY    60  54  82 NW15      29.86F
MITCHELL       CLOUDY    65  60  84 N8        29.80R
YANKTON        CLOUDY    69  61  75 VRB3      29.79R
$$

ABBREVIATIONS USED IN REMARKS
   TC - TEMPERATURE IN CELSIUS
  WCI - WIND CHILL INDEX
   HX - HEAT INDEX
  VSB - VISIBILITY





USA.gov is the U.S. government's official web portal to all federal, state and local government web resources and services.